Regional Weather Roundup
Issued by NWS State College, PA

Current Version | Previous Version | Text Only | Print | Product List | Glossary On
Versions: 1 2 3 4 5 6 7 8 9 10 11 12 13 14 15 16 17 18 19 20 21 22 23 24 25 26 27 28 29 30 31 32 33 34 35 36 37 38 39 40 41 42 43 44 45 46 47 48 49 50
392
ASUS41 KCTP 250810
RWRCTP

REGIONAL WEATHER ROUNDUP
NATIONAL WEATHER SERVICE STATE COLLEGE PA
300 AM EST SAT NOV 25 2017

Note: "fair" indicates few or no clouds below 12,000 feet with no
significant weather and/or obstructions to visibility.

* = STATION THAT DOES NOT REPORT PRECIPITATION /E.G. RAIN...SNOW...ETC/
    THUNDER OR FOG.

PAZ002>004-007>009-013>016-020>023-029>032-250900-
WESTERN PENNSYLVANIA

CITY           SKY/WX    TMP DP  RH WIND       PRES   REMARKS
ERIE           CLOUDY    52  24  33 S22G36    29.61R
MEADVILLE      CLOUDY    47  23  38 S9G20     29.66S
FRANKLIN*      CLOUDY    46  24  42 S13G18    29.69S
NEW CASTLE     CLOUDY    48  25  40 VRB3      29.71R
BEAVER COUNTY  NOT AVBL
BUTLER*        CLEAR     44  21  40 SW8       29.72F
PITTSBURGH INT PTCLDY    47  23  38 S8        29.72S
PITTSBURGH     CLEAR     46  18  32 S12       29.73R
INDIANA*       CLEAR     41  25  52 SW7       29.78S
LATROBE        CLEAR     41  27  56 SW9       29.76R
WASHINGTON CO* CLEAR     44  23  43 S9        29.77S
$$

PAZ004>006-010>012-017>019-024>028-033>037-041-042-045-046-049>053-250900-
CENTRAL PENNSYLVANIA

CITY           SKY/WX    TMP DP  RH WIND       PRES   REMARKS
BRADFORD       CLEAR     44  20  38 VRB7      29.69S
DUBOIS         CLEAR     44  19  36 S8        29.71S
CLEARFIELD     CLEAR     28  24  85 NE3       29.75F
JOHNSTOWN      CLEAR     47  22  37 S10       29.74F
ALTOONA        CLEAR     36  24  62 W3        29.78S
STATE COLLEGE  CLEAR     39  24  54 W5        29.78F
WILLIAMSPORT   CLOUDY    33  25  72 W3        29.80F
SELINSGROVE    CLOUDY    28  26  92 CALM      29.83F
FT INDIANTOWN  CLOUDY    27  26  98 CALM      29.85F
CAPITAL CITY   CLEAR     31  26  82 CALM      29.86S
HARRISBURG     CLOUDY    31  27  85 SE3       29.85S
YORK           CLOUDY    28  26  92 CALM      29.84F
$$

PAZ038>040-043-044-047-048-054-055-060>062-067>071-250900-
EASTERN PENNSYLVANIA

CITY           SKY/WX    TMP DP  RH WIND       PRES   REMARKS
SCRANTON       CLOUDY    40  25  55 CALM      29.81S
MOUNT POCONO   CLEAR     37  26  64 SW8       29.80F
ALLENTOWN      CLOUDY    28  22  78 CALM      29.87S
QUAKERTOWN*    CLOUDY    27  25  93 CALM      29.87F
READING        CLOUDY    35  28  75 CALM      29.86F
LANCASTER      CLOUDY    33  29  85 E6        29.87S
COATESVILLE    CLOUDY    34  30  86 CALM      29.88F
POTTSTOWN      CLOUDY    30  28  92 CALM      29.89F
BLUE BELL      CLOUDY    30  30 100 CALM      29.90F
DOYLESTOWN     CLOUDY    31  28  89 CALM      29.87F
WILLOW GROVE   NOT AVBL
NORTH PHILA    CLEAR     32  27  81 CALM      29.91S
PHILADELPHIA   CLEAR     38  32  79 CALM      29.90F
$$




USA.gov is the U.S. government's official web portal to all federal, state and local government web resources and services.